Wind_Speed
36 36 36 36 37 36 36 36 35 34 34 34 34 34 33 33 33 33 34 34 34 34 34 34 34 34 33 33 32 32 33 33 34 35 35 36 36 36 37 38 38 39 40
39 39 38 38 38 37 37 37 37 37 36 37 36 36 35 35 35 34 34 34 34 35 35 35 36 35 35 34 34 34 34 35 36 37 37 38 38 39 39 40 40 41 42
41 41 40 40 39 39 39 39 38 38 38 38 38 38 37 37 37 36 35 36 36 36 36 37 37 36 36 36 36 36 36 37 38 39 39 40 40 41 41 41 42 43 43
43 43 42 42 42 41 41 40 40 41 40 40 40 39 39 39 40 40 38 38 37 38 38 38 38 37 37 38 38 38 38 39 40 40 40 41 42 42 42 42 43 44 44
45 44 44 44 44 44 43 43 43 43 42 42 42 41 41 41 41 41 40 39 39 39 39 39 39 38 39 39 40 40 40 41 42 42 42 43 43 43 43 44 44 45 45
46 46 46 46 46 45 45 45 44 44 44 43 43 43 43 43 43 43 42 41 40 40 40 40 40 39 40 41 41 41 42 43 43 43 43 43 44 44 44 44 44 44 45
48 47 48 48 48 47 46 46 46 45 45 45 45 44 44 44 44 44 43 42 42 42 41 41 41 40 40 41 41 42 43 43 43 43 43 43 43 44 45 45 45 44 45
49 49 49 49 48 48 47 47 47 46 46 46 46 46 46 45 45 45 44 44 43 43 42 42 42 41 40 41 42 42 42 43 43 42 43 43 44 44 44 45 46 46 47
49 50 50 50 50 49 48 48 48 48 47 48 48 48 47 46 46 45 45 44 44 43 42 42 41 41 41 42 42 42 42 43 42 43 44 44 44 45 45 46 47 48 48
50 51 51 51 51 50 50 49 48 48 47 47 48 48 48 47 47 46 44 44 44 43 43 42 41 41 41 41 42 43 43 43 43 43 44 44 45 45 46 47 48 49 50
50 51 52 52 51 51 50 50 49 47 47 47 47 47 47 46 46 46 43 43 43 43 43 42 42 42 41 42 42 43 43 44 44 44 45 45 45 46 46 47 49 50 51
49 50 51 50 50 49 49 49 48 47 48 48 47 46 45 46 45 45 44 43 43 43 43 43 42 42 42 42 43 43 44 44 44 45 46 46 46 46 47 48 50 50 49
49 50 50 49 48 47 48 48 48 47 46 46 45 45 43 44 43 43 43 42 43 43 42 41 40 41 41 42 43 43 43 44 44 45 46 46 46 47 48 49 49 49 49
47 48 49 48 47 47 47 48 47 46 45 44 43 43 43 42 41 41 41 41 41 42 42 40 40 40 41 41 42 43 43 44 45 46 46 47 48 48 49 49 49 48 48
45 47 46 45 46 46 46 46 45 44 44 43 42 42 42 41 41 41 42 42 41 41 40 40 40 41 41 41 43 43 43 44 45 46 47 48 48 48 48 48 48 47 47
43 43 43 44 45 44 44 44 42 42 42 42 42 42 43 42 41 42 42 42 41 39 38 39 40 41 40 41 42 43 44 46 46 47 47 48 48 48 48 47 47 46 46
42 41 41 41 42 42 41 41 41 40 40 40 41 42 41 40 41 41 41 40 40 39 38 38 40 40 40 41 42 43 44 45 45 46 46 46 46 47 47 47 46 46 45
40 41 40 39 37 38 39 38 38 38 38 38 39 40 39 40 40 39 40 40 39 38 38 38 38 38 39 40 41 42 43 43 43 44 44 44 45 46 46 45 44 44 44
39 39 37 36 35 35 34 35 35 35 36 37 36 36 38 39 39 39 39 38 37 37 38 38 38 38 38 39 39 40 40 41 41 41 41 42 42 43 43 42 42 43 43
35 35 34 33 33 32 33 33 32 31 33 35 35 35 35 35 36 36 36 36 37 38 38 38 38 38 38 39 39 39 38 38 39 40 40 40 41 41 41 41 41 41 41
32 32 32 31 31 31 31 30 30 30 30 32 33 33 32 32 33 33 33 33 35 36 37 37 37 36 37 37 37 37 37 37 37 38 39 40 41 41 40 40 40 40 38
30 30 31 31 31 31 31 30 30 30 30 29 29 30 31 31 31 31 31 32 33 34 35 35 35 36 36 36 36 36 35 36 36 37 38 39 39 38 37 38 38 37 36
29 28 28 30 30 30 29 29 29 29 29 29 29 29 29 29 30 32 31 31 32 33 33 32 32 33 34 34 34 34 34 34 35 36 37 36 35 34 35 34 34 33 33
26 27 28 28 29 28 29 29 29 28 28 29 29 27 27 28 29 30 30 30 29 29 28 29 30 30 31 31 31 32 33 33 34 35 34 33 32 32 31 31 31 30 30
26 27 27 28 27 27 27 28 28 28 28 28 28 26 27 27 28 29 29 28 28 28 28 28 28 29 30 30 30 30 32 33 32 32 31 30 29 29 29 28 29 29 29
24 25 25 25 25 26 27 27 27 27 27 26 27 26 26 26 27 28 28 28 28 28 28 27 28 28 28 28 29 30 30 30 30 29 28 28 28 28 27 27 27 28 28
Wind_Direction
263 264 264 265 265 266 268 268 268 269 270 270 270 269 269 271 272 272 273 273 272 271 272 273 275 275 274 274 275 276 276 278 280 282 284 285 286 287 287 287 289 290 291
262 263 264 265 266 266 267 267 268 269 270 270 270 270 270 270 271 272 273 273 272 272 272 273 274 275 275 274 274 275 277 278 280 282 283 284 285 286 287 288 288 289 290
263 263 263 265 266 267 266 266 268 269 270 270 270 270 271 270 270 271 272 273 273 272 272 273 274 275 275 274 274 274 276 278 279 281 282 284 285 286 287 288 288 289 289
263 263 263 264 265 267 266 267 268 269 269 269 270 271 271 271 269 270 271 272 272 272 273 273 274 275 275 275 275 275 276 278 280 281 282 283 285 286 287 288 288 288 289
262 263 263 264 265 266 267 268 270 269 268 268 269 270 270 271 270 270 270 271 272 273 273 273 274 274 274 274 274 275 277 278 279 281 282 283 284 285 286 287 289 288 289
262 262 263 264 266 267 268 268 269 268 268 269 270 270 270 272 271 270 270 270 272 273 273 273 274 275 274 274 275 276 277 279 280 281 283 284 285 286 287 288 289 290 290
262 262 263 264 266 266 267 267 268 268 268 269 270 271 271 272 273 271 269 269 270 272 274 274 275 276 275 274 275 277 278 278 279 281 283 284 285 286 286 287 289 290 290
260 262 263 264 265 266 266 266 267 267 268 269 271 272 272 271 272 272 270 268 270 271 273 274 275 277 276 275 275 277 278 278 279 280 281 283 284 285 286 287 287 289 289
261 262 262 263 263 265 265 265 266 266 267 268 270 271 272 271 272 272 271 269 269 270 272 274 276 277 276 276 275 277 278 278 278 279 281 282 284 285 286 287 288 289 289
261 262 263 263 263 264 264 263 263 264 266 267 269 271 272 272 272 272 270 270 270 271 272 273 274 275 277 276 277 278 278 278 278 279 280 282 284 285 286 287 289 289 289
261 262 262 262 263 263 263 264 263 262 264 266 268 269 270 271 272 271 270 270 270 270 271 273 274 275 275 277 278 279 278 278 279 280 280 282 283 285 286 288 289 289 290
262 263 262 262 263 262 261 262 262 263 265 266 266 268 269 271 271 271 269 269 268 269 270 272 274 274 275 277 278 278 278 278 279 280 281 282 283 284 286 287 289 289 290
263 264 264 262 262 262 261 261 261 263 265 265 265 266 268 269 270 270 269 268 268 268 269 271 273 273 275 276 277 277 277 278 279 280 282 282 283 284 286 288 289 289 289
263 264 264 262 261 261 259 259 259 261 262 262 264 265 266 267 268 268 268 268 268 269 270 271 272 273 275 275 275 276 277 278 279 280 281 282 283 285 286 288 288 289 289
262 262 263 262 262 261 259 258 257 259 260 262 264 265 265 266 267 268 268 268 270 270 270 272 272 273 274 274 275 276 277 278 279 281 282 283 284 285 287 288 288 288 289
263 263 263 262 262 261 260 257 257 259 261 262 263 265 266 266 267 268 269 268 269 271 273 273 273 273 273 274 275 277 278 279 281 282 282 283 284 285 287 287 287 288 289
263 263 262 262 261 261 259 258 259 259 262 265 264 265 266 266 267 268 269 269 269 270 271 273 273 273 275 276 277 279 279 280 281 282 283 284 284 286 287 287 287 288 289
263 263 263 264 262 262 258 259 260 260 263 264 265 266 266 267 267 268 269 269 270 270 272 274 274 275 276 278 279 281 282 282 282 282 284 285 286 288 288 287 288 288 289
262 262 262 263 263 262 259 260 261 263 265 266 266 267 268 268 267 268 269 269 270 270 271 273 275 278 279 280 281 281 282 282 283 284 287 288 289 290 289 289 289 290 290
260 259 260 261 262 260 259 260 262 265 266 265 265 266 268 269 268 267 268 270 271 271 272 274 277 279 281 282 282 282 283 284 285 286 288 290 291 292 292 292 291 290 290
260 259 259 259 258 258 257 259 261 265 265 264 265 266 267 267 268 268 269 271 272 274 274 275 279 280 281 283 284 284 286 287 288 290 291 291 291 292 292 292 291 291 290
261 261 259 259 258 258 257 259 261 263 264 264 266 267 266 265 265 266 269 272 274 275 275 276 278 281 282 284 286 286 286 288 289 291 292 292 292 292 292 292 291 291 290
262 261 260 258 257 256 256 258 261 262 263 264 265 266 265 264 265 266 270 274 275 276 276 277 277 281 283 285 286 287 288 289 291 294 296 295 294 293 293 292 291 291 292
263 261 260 257 254 255 256 259 262 263 263 263 263 263 264 264 266 267 269 272 275 276 275 276 279 281 283 285 286 287 289 290 293 295 296 296 296 296 296 294 293 294 296
262 260 259 256 255 257 259 260 260 261 263 263 264 264 266 268 268 266 267 270 272 274 276 278 279 281 283 285 287 288 290 291 293 295 296 297 299 299 297 295 295 297 298
263 261 260 258 258 258 258 259 260 262 261 261 263 265 268 270 269 269 270 272 272 273 274 276 278 280 281 283 287 290 292 293 294 294 295 296 299 299 297 297 297 298 298
Height
5777 5777 5778 5778 5778 5778 5778 5778 5778 5778 5778 5778 5778 5778 5779 5779 5780 5780 5780 5781 5781 5781 5781 5782 5782 5782 5782 5782 5783 5782 5782 5782 5781 5780 5779 5778 5776 5775 5773 5771 5769 5767 5765
5768 5768 5769 5769 5769 5769 5769 5769 5769 5769 5770 5770 5770 5770 5770 5770 5771 5772 5772 5772 5772 5772 5772 5773 5773 5773 5774 5774 5774 5774 5774 5773 5773 5772 5771 5769 5768 5766 5764 5762 5760 5758 5756
5758 5759 5759 5760 5760 5760 5760 5760 5760 5760 5761 5761 5761 5761 5761 5761 5762 5763 5763 5764 5763 5764 5764 5764 5764 5764 5765 5765 5765 5765 5765 5764 5764 5763 5762 5760 5759 5757 5755 5753 5751 5749 5746
5748 5749 5750 5750 5750 5750 5750 5751 5751 5751 5751 5751 5751 5752 5752 5752 5752 5753 5754 5754 5754 5755 5755 5755 5755 5755 5755 5756 5756 5755 5755 5755 5754 5753 5752 5751 5749 5747 5745 5743 5741 5739 5736
5738 5739 5739 5740 5740 5740 5740 5741 5741 5741 5741 5741 5741 5742 5742 5742 5742 5743 5744 5744 5745 5745 5745 5745 5745 5745 5746 5746 5746 5746 5746 5745 5744 5743 5742 5741 5739 5738 5735 5733 5731 5728 5726
5727 5728 5728 5729 5729 5730 5730 5730 5730 5730 5731 5731 5732 5732 5733 5732 5733 5733 5734 5734 5735 5735 5735 5735 5735 5735 5735 5736 5736 5736 5735 5735 5734 5733 5732 5730 5729 5727 5725 5723 5720 5718 5715
5715 5716 5717 5718 5718 5719 5719 5719 5720 5720 5721 5721 5722 5722 5723 5722 5722 5723 5723 5724 5725 5725 5725 5725 5724 5724 5725 5725 5725 5725 5724 5724 5724 5723 5721 5720 5718 5717 5714 5712 5710 5707 5704
5704 5705 5705 5706 5707 5707 5707 5708 5709 5710 5710 5711 5711 5711 5712 5713 5712 5712 5713 5714 5714 5715 5715 5714 5714 5714 5714 5714 5715 5714 5714 5714 5713 5712 5711 5709 5708 5706 5704 5701 5699 5696 5693
5692 5693 5694 5694 5695 5695 5696 5697 5697 5698 5699 5700 5700 5700 5700 5701 5702 5703 5703 5703 5704 5705 5705 5704 5704 5704 5704 5704 5704 5704 5703 5703 5702 5701 5700 5698 5697 5695 5693 5690 5688 5685 5681
5679 5680 5680 5681 5682 5683 5684 5685 5685 5686 5687 5688 5688 5688 5688 5689 5690 5692 5693 5693 5694 5694 5695 5694 5694 5693 5693 5693 5693 5693 5693 5692 5691 5690 5689 5687 5686 5684 5682 5679 5676 5673 5670
5666 5667 5667 5668 5669 5670 5671 5672 5673 5674 5675 5676 5676 5676 5677 5677 5678 5680 5682 5684 5684 5684 5684 5684 5684 5683 5683 5683 5683 5682 5682 5681 5680 5679 5678 5676 5674 5672 5670 5667 5664 5661 5657
5653 5653 5654 5655 5656 5657 5658 5660 5661 5662 5663 5664 5665 5665 5666 5667 5668 5669 5671 5673 5674 5674 5674 5674 5673 5673 5673 5673 5672 5672 5671 5670 5669 5668 5666 5665 5663 5660 5658 5655 5652 5648 5645
5640 5641 5641 5642 5643 5644 5646 5648 5649 5651 5652 5653 5654 5655 5655 5656 5657 5658 5660 5662 5663 5664 5664 5664 5663 5663 5663 5662 5662 5661 5660 5659 5658 5656 5655 5653 5651 5649 5646 5643 5640 5636 5632
5628 5628 5629 5630 5631 5632 5634 5636 5638 5640 5641 5642 5643 5644 5645 5645 5646 5647 5649 5651 5652 5653 5654 5653 5653 5653 5653 5652 5651 5650 5650 5648 5646 5644 5643 5641 5639 5636 5634 5630 5627 5624 5620
5616 5616 5617 5618 5619 5621 5622 5624 5627 5628 5630 5631 5633 5634 5635 5636 5636 5637 5638 5640 5641 5642 5643 5643 5643 5643 5642 5642 5640 5639 5638 5636 5634 5632 5630 5628 5626 5623 5621 5617 5614 5611 5608
5604 5605 5606 5608 5609 5610 5611 5613 5616 5618 5619 5621 5623 5624 5625 5626 5627 5627 5628 5629 5630 5632 5632 5633 5633 5632 5631 5630 5629 5628 5627 5625 5622 5620 5618 5616 5613 5611 5608 5605 5601 5599 5596
5593 5594 5596 5597 5598 5599 5601 5603 5605 5607 5609 5611 5612 5614 5615 5616 5617 5618 5618 5619 5620 5621 5622 5623 5622 5622 5621 5620 5619 5617 5615 5613 5611 5609 5606 5604 5601 5598 5595 5592 5589 5587 5584
5583 5585 5586 5587 5588 5589 5591 5594 5596 5598 5600 5601 5603 5604 5605 5606 5607 5608 5608 5609 5610 5611 5611 5612 5613 5612 5611 5609 5608 5606 5604 5602 5600 5597 5595 5592 5589 5586 5583 5580 5578 5575 5572
5574 5575 5576 5578 5579 5580 5582 5584 5587 5589 5591 5592 5594 5595 5596 5597 5598 5599 5599 5600 5601 5601 5601 5602 5603 5602 5600 5598 5597 5595 5593 5591 5588 5585 5583 5581 5578 5575 5572 5569 5566 5563 5560
5565 5566 5567 5569 5570 5572 5574 5576 5578 5580 5582 5584 5585 5586 5587 5588 5588 5590 5590 5591 5591 5592 5592 5593 5593 5592 5590 5588 5586 5585 5583 5581 5578 5575 5573 5570 5567 5564 5561 5558 5556 5552 5549
5556 5557 5558 5560 5561 5563 5566 5568 5570 5572 5574 5575 5576 5577 5578 5579 5580 5580 5581 5582 5582 5583 5583 5583 5583 5582 5581 5579 5577 5575 5573 5571 5569 5566 5563 5561 5557 5554 5550 5547 5544 5541 5539
5548 5549 5550 5552 5554 5556 5558 5560 5562 5564 5566 5567 5568 5569 5570 5571 5571 5572 5573 5573 5574 5574 5574 5574 5573 5572 5571 5569 5568 5566 5563 5562 5561 5558 5554 5551 5547 5543 5540 5537 5534 5531 5529
5542 5542 5543 5545 5547 5549 5551 5553 5555 5557 5558 5560 5561 5562 5563 5563 5564 5564 5565 5565 5565 5565 5565 5565 5564 5563 5562 5561 5559 5557 5555 5552 5550 5547 5543 5541 5537 5533 5530 5527 5524 5522 5520
5535 5536 5537 5539 5540 5542 5544 5546 5548 5549 5551 5552 5553 5554 5555 5555 5556 5556 5557 5557 5557 5557 5557 5557 5556 5555 5554 5552 5550 5549 5546 5544 5542 5538 5534 5532 5529 5525 5522 5519 5517 5514 5511
5528 5529 5530 5532 5534 5535 5537 5539 5540 5542 5543 5544 5545 5546 5547 5548 5548 5549 5550 5550 5550 5549 5549 5548 5548 5547 5546 5544 5542 5540 5538 5536 5534 5531 5526 5523 5521 5518 5515 5512 5509 5506 5503
5522 5523 5524 5525 5526 5528 5530 5532 5533 5535 5537 5538 5538 5539 5540 5540 5541 5541 5541 5542 5542 5542 5541 5541 5540 5539 5538 5536 5534 5532 5530 5528 5525 5523 5519 5516 5513 5510 5508 5506 5502 5499 5496